Flag for Vietnam Weather past 2 weeks in Hanoi, Vietnam

77 °F

Light rain. Broken clouds.

Feels Like: 78 °F
Forecast: 66 / 71 °F
Wind: 6 mph from North

Location: Ha Noi Airport

Current Time: Oct 9, 2015 at 12:51:16 PM

Latest Report: Oct 9, 2015 at 12:00 PM

Visibility: 4 mi

Pressure: 29.92 "Hg

Humidity: 83%

Dew point: 72 °F

Location of HanoiLocation

Historic Weather in Hanoi — Graph


Hanoi temperature yesterday

Maximum temperature yesterday: 84 °F (at 2:30 PM)
Minimum temperature yesterday: 75 °F (at 8:30 AM)
Average temperature yesterday: 80 °F

Past Weeks' High & Low Weather Summary

High95 °F (Sep 24, 2:00 PM)100% (Sep 30, 4:00 AM)29.98 "Hg (Sep 30, 4:00 AM)
Low75 °F (Oct 1, 9:00 PM)44% (Sep 29, 3:30 PM)29.53 "Hg (Sep 25, 3:30 PM)
Average84 °F73%29.81 "Hg
* Reported Sep 24 11:30 AM — Oct 9 11:30 AM, Hanoi, Weather by CustomWeather, © 2015

Note: Actual official high and low records may vary slightly from our data, if they occured in-between our weather recording intervals... More about our weather records


Hanoi weather history for previous 24 hours

Time TempWeatherWind HumidityBarometerVisibility
11:30 AM
Fri, Oct 9
75 °FRain. Broken clouds.6 mph89%29.92 "Hg3 mi
11:00 AM77 °FHeavy rain. Broken clouds.5 mph79%29.95 "Hg2 mi
10:30 AM79 °FBroken clouds.5 mph74%29.92 "HgN/A
10:00 AM81 °FBroken clouds.6 mph70%29.92 "HgN/A
9:30 AM81 °FPartly sunny.6 mph70%29.92 "HgN/A
9:00 AM79 °FSunny.6 mph74%29.92 "Hg10 mi
8:30 AM81 °FPartly sunny.7 mph70%29.92 "HgN/A
8:00 AM79 °FPartly sunny.7 mph70%29.89 "HgN/A
7:30 AM79 °FSunny.8 mph70%29.89 "Hg10 mi
7:00 AM79 °FSunny.6 mph70%29.89 "Hg10 mi
6:30 AM79 °FPartly sunny.5 mph70%29.86 "HgN/A
6:00 AM79 °FPartly sunny.5 mph70%29.86 "HgN/A
5:30 AM79 °FPassing clouds.6 mph70%29.86 "HgN/A
5:00 AM79 °FPassing clouds.5 mph70%29.83 "HgN/A
4:30 AM79 °FPassing clouds.5 mph74%29.83 "HgN/A
4:00 AM79 °FPassing clouds.1 mph79%29.83 "HgN/A
3:30 AM77 °FPassing clouds.2 mph83%29.83 "Hg6 mi
3:00 AM77 °FPassing clouds.3 mph89%29.83 "Hg4 mi
2:30 AM77 °FPassing clouds.2 mph83%29.86 "Hg4 mi
2:00 AM77 °FPassing clouds.2 mph89%29.86 "Hg4 mi
1:30 AM77 °FPassing clouds.5 mph89%29.86 "Hg4 mi
1:00 AM77 °FPassing clouds.5 mph89%29.86 "Hg4 mi
12:30 AM77 °FPassing clouds.6 mph89%29.89 "Hg4 mi
12:00 AM77 °FClear.7 mph89%29.89 "Hg4 mi
11:30 PM
Thu, Oct 8
79 °FPassing clouds.5 mph84%29.89 "Hg4 mi
11:00 PM79 °FPassing clouds.5 mph84%29.92 "Hg4 mi
10:30 PM79 °FClear.5 mph79%29.92 "Hg4 mi
10:00 PM79 °FClear.6 mph79%29.92 "Hg4 mi
9:30 PM79 °FClear.6 mph79%29.92 "Hg4 mi
9:00 PM79 °FPassing clouds.6 mph79%29.92 "Hg4 mi
8:30 PM81 °FPassing clouds.5 mph74%29.89 "Hg5 mi
8:00 PM81 °FPassing clouds.7 mph74%29.89 "Hg5 mi
7:30 PM81 °FPassing clouds.6 mph70%29.89 "Hg5 mi
7:00 PM81 °FClear.3 mph66%29.86 "Hg10 mi
6:30 PM81 °FClear.2 mph66%29.86 "Hg10 mi
6:00 PM81 °FPassing clouds.6 mph66%29.83 "HgN/A
5:30 PM81 °FPassing clouds.7 mph70%29.83 "HgN/A
5:00 PM82 °FSunny.9 mph66%29.83 "Hg10 mi
4:30 PM82 °FSunny.10 mph66%29.83 "Hg10 mi
4:00 PM82 °FSunny.10 mph62%29.83 "Hg10 mi
3:30 PM82 °FSunny.14 mph62%29.83 "Hg10 mi
3:00 PM84 °FSunny.12 mph62%29.83 "Hg10 mi
2:30 PM84 °FSunny.14 mph58%29.83 "Hg10 mi
2:00 PM82 °FSunny.15 mph62%29.83 "Hg10 mi
1:30 PM82 °FSunny.12 mph62%29.86 "Hg10 mi
1:00 PM81 °FSunny.9 mph70%29.86 "Hg10 mi
12:30 PM81 °FSunny.10 mph70%29.89 "Hg10 mi
12:00 PM81 °FSunny.13 mph66%29.89 "Hg10 mi
Weather by CustomWeather, © 2015

See weather overviewHow to use our weather pages